Theta_e
301 302 303 304 306 307 309 311 313 313 313 314 315 315 316 316 317 317 317 317 318 317 319 320 321 322 323 323 324 324 324 323 323 323 323 322 321 321 322 322 322 322 321 321 322 323 323 322 321 321 321 322 322 322 322 322 322 322 322 322 322 322 323 323 323 322 322 321 321 321 321 321 320 321 320 319 319 318 318 318 317 317 316 315 316 316 315 313 309 305 304 303 303 303 303 302 301 301 301 301 300 302 303
302 302 302 303 304 305 306 308 309 310 311 311 312 313 314 315 315 315 315 316 316 316 318 319 320 320 320 321 322 323 323 323 322 322 322 321 321 322 322 322 321 320 320 320 320 321 320 320 320 320 321 321 322 322 322 322 322 322 323 323 323 323 323 323 323 322 322 321 321 320 320 321 321 321 320 319 318 318 318 318 318 317 317 316 316 317 314 311 307 304 303 302 301 301 302 302 302 300 300 299 299 299 300
301 301 302 302 303 303 304 305 306 308 308 309 310 311 312 313 314 314 314 315 316 317 317 318 319 319 319 320 321 322 323 323 322 322 322 322 321 321 321 321 320 320 319 320 320 319 319 319 319 319 320 321 322 322 322 322 322 322 322 322 323 323 323 323 323 322 322 322 321 321 321 321 321 321 320 319 319 319 319 319 318 318 317 317 316 315 311 308 306 305 303 301 300 301 301 301 301 300 299 299 299 298 297
301 301 301 301 302 302 303 303 304 306 306 307 308 309 310 311 312 313 314 314 315 317 317 317 318 319 319 319 320 321 322 323 323 323 322 322 321 321 322 322 321 321 321 321 320 320 320 320 319 319 320 321 322 322 322 322 322 322 322 322 322 322 322 322 322 322 322 321 321 321 321 321 321 320 320 319 319 319 319 319 319 318 317 316 314 312 309 307 305 303 302 301 301 301 302 301 300 300 299 299 299 298 296
300 300 300 300 301 301 302 303 303 303 304 305 306 308 309 310 311 312 313 314 314 315 315 317 317 319 319 320 321 321 322 322 322 322 322 321 321 322 322 322 322 322 322 322 322 321 321 321 321 321 322 322 323 322 322 322 322 322 322 322 322 322 322 321 322 322 322 321 321 321 321 320 320 320 319 319 319 319 319 318 317 317 316 313 311 308 306 304 303 302 302 301 301 301 301 302 301 299 299 299 298 297 297
300 300 300 300 300 301 301 301 302 302 303 304 305 306 306 308 309 310 310 312 312 313 313 314 315 316 318 319 320 321 321 321 320 321 320 321 321 321 321 322 322 322 322 323 323 321 321 321 322 322 323 323 323 322 322 322 321 322 321 321 321 321 321 321 321 321 321 321 320 320 319 319 319 319 319 319 319 318 317 315 313 313 311 309 307 305 304 303 303 302 302 302 301 301 301 301 301 301 301 301 302 302 303
299 299 300 300 300 300 300 301 301 301 302 303 303 303 304 305 306 307 308 308 309 310 311 312 313 314 315 316 318 319 320 320 319 319 319 319 319 319 319 320 321 322 322 322 322 322 322 322 322 322 322 322 322 321 321 320 320 321 321 321 321 321 321 320 320 319 318 317 317 317 317 317 317 317 317 317 315 313 311 309 307 305 304 304 304 303 302 302 302 302 302 302 301 301 301 300 301 301 302 303 304 305 305
299 299 300 300 300 300 300 300 300 301 301 301 301 301 301 302 303 304 305 306 306 307 308 309 310 312 313 315 316 317 319 319 319 319 319 319 318 318 318 318 319 321 321 322 322 322 322 321 321 321 321 321 320 319 319 319 319 319 319 319 319 318 318 317 315 312 310 310 311 312 312 311 310 310 310 309 308 306 305 304 304 303 303 303 303 302 302 302 302 302 301 301 301 301 302 302 302 301 301 301 301 302 303
298 299 299 299 299 299 300 300 301 301 301 301 300 300 300 301 301 302 303 304 304 305 306 307 308 309 311 313 314 315 317 317 318 319 319 318 318 318 318 318 319 320 321 321 321 320 320 320 319 318 318 317 317 317 317 317 317 317 317 316 314 310 309 307 306 305 304 304 305 305 304 304 303 303 303 302 302 302 303 303 303 303 303 303 303 302 302 302 301 301 301 301 301 301 302 302 302 301 300 300 300 300 301
298 298 299 299 299 299 300 300 300 300 301 300 300 300 300 301 301 302 302 303 303 304 305 305 306 308 310 311 312 313 314 316 317 318 318 318 318 318 318 319 319 319 318 317 317 316 316 315 315 315 314 314 314 314 315 315 315 315 312 309 307 304 303 303 303 303 303 303 303 302 302 302 302 302 302 301 302 302 303 302 302 303 303 303 302 302 302 302 302 301 302 302 301 300 301 301 301 300 300 300 299 299 300
298 299 299 299 299 300 300 300 300 300 300 300 300 300 300 301 302 302 303 303 303 304 304 305 306 307 308 309 310 311 312 313 315 317 317 317 317 318 316 316 316 316 315 314 313 313 313 313 313 313 312 312 311 312 312 313 312 309 307 305 305 304 304 304 303 303 303 303 303 303 303 303 302 302 301 301 302 302 302 302 302 303 303 303 302 302 302 301 301 302 301 301 301 300 300 301 301 300 299 299 300 299 298
298 298 299 299 299 299 299 299 299 300 300 300 300 300 300 301 302 303 303 303 303 303 304 304 305 305 306 307 308 308 309 311 312 314 315 315 315 315 313 312 312 312 312 311 311 311 312 312 312 311 309 309 309 309 309 308 307 305 305 305 305 304 303 303 303 303 302 303 303 303 302 302 302 301 302 302 302 302 302 302 303 303 304 303 302 302 301 301 301 301 301 301 301 300 300 300 300 300 299 299 299 298 297
298 298 298 299 299 299 299 299 299 299 300 300 300 300 301 302 302 302 302 302 303 303 303 303 303 304 304 305 305 306 306 307 308 309 309 310 310 310 309 309 309 310 310 310 310 310 310 310 308 306 305 305 305 305 305 305 304 304 304 305 305 304 303 303 303 302 302 302 302 302 302 302 302 302 302 302 302 302 302 303 303 303 303 303 302 301 301 301 301 301 301 301 301 300 299 299 299 300 299 299 299 298 297
298 298 298 299 299 299 299 299 299 299 299 300 300 301 302 302 302 302 302 302 302 302 302 303 303 303 304 304 304 304 304 305 305 305 305 306 305 305 305 305 306 306 308 309 309 309 307 305 304 303 303 303 303 303 304 303 303 303 304 304 304 304 303 303 302 302 302 302 302 302 302 302 302 302 302 302 302 302 302 302 303 303 303 302 301 301 300 300 300 300 300 300 300 299 299 298 298 299 299 299 299 299 298
298 298 298 299 299 299 299 299 299 299 299 300 301 302 302 302 302 302 302 302 302 303 303 303 302 302 302 303 303 303 303 304 304 303 303 304 304 303 302 302 303 303 303 304 304 304 303 303 302 303 303 303 303 302 302 302 302 303 303 304 303 303 303 303 302 302 301 301 301 302 301 301 302 302 301 301 301 301 301 301 301 302 302 302 301 301 300 299 299 299 299 298 298 298 298 298 298 299 299 299 300 300 300
298 298 299 299 299 300 300 300 300 299 300 300 301 301 301 301 302 302 302 302 302 302 302 302 302 302 301 301 301 302 302 303 303 302 302 303 303 304 302 302 302 302 301 301 301 302 303 303 302 302 302 301 300 301 301 301 301 302 302 302 302 302 302 302 302 301 300 300 300 300 300 300 300 300 300 300 300 300 300 300 300 301 301 300 300 299 299 298 298 298 298 297 297 297 297 297 297 297 298 299 300 301 300
299 299 299 299 300 300 300 300 300 300 299 300 300 300 301 301 301 302 302 302 302 302 302 302 302 301 301 301 300 301 301 302 302 301 301 301 301 302 301 301 300 300 300 299 300 300 301 301 300 300 300 299 299 300 301 301 301 300 301 301 301 301 301 301 300 300 300 299 298 298 298 298 298 298 298 298 298 298 298 298 299 300 300 299 298 297 297 297 297 297 297 297 296 296 296 296 296 296 297 298 299 299 299
299 299 299 299 300 300 300 301 300 299 299 299 300 300 300 301 301 301 301 301 302 301 301 301 301 300 300 300 300 300 300 300 300 300 300 300 299 300 300 300 299 298 298 298 298 298 298 299 299 299 299 299 300 300 300 300 300 300 300 300 300 300 300 299 299 299 299 298 297 297 297 297 296 296 296 296 296 296 296 297 297 299 298 297 296 296 296 296 296 296 296 295 295 295 295 295 295 295 297 297 298 298 297
300 300 299 299 299 300 300 300 299 299 299 299 299 300 300 300 300 300 300 300 301 301 301 301 300 299 299 299 299 299 299 299 300 299 299 298 298 298 299 299 298 297 297 296 297 297 297 297 297 298 298 298 299 299 299 299 299 299 299 299 299 299 299 298 298 298 298 297 297 296 296 296 296 295 296 295 295 295 296 296 296 297 297 296 295 296 296 295 295 296 296 295 295 295 295 295 295 295 296 297 297 296 296
300 299 299 299 299 300 300 299 299 298 298 298 299 299 299 299 299 299 299 300 300 300 300 300 300 299 299 299 299 299 298 298 299 298 298 298 297 297 297 297 297 297 296 296 296 296 296 296 296 297 297 297 297 297 297 297 297 298 298 298 298 298 298 297 297 297 297 297 297 297 296 296 296 296 296 295 295 295 295 295 295 295 295 295 295 295 295 295 295 295 295 296 296 295 295 295 295 295 296 296 296 296 297
299 298 298 298 299 299 299 299 298 298 298 298 298 298 298 298 298 299 299 299 299 299 299 299 299 298 298 298 298 298 297 298 298 298 297 297 297 296 296 296 296 296 295 295 295 296 296 296 296 296 296 296 296 297 297 297 297 296 297 297 297 297 296 296 296 296 296 296 296 296 295 296 296 296 296 295 295 295 295 295 295 295 294 294 294 294 294 294 294 295 295 296 296 295 295 295 295 294 294 295 295 296 296
298 297 298 298 298 298 298 298 298 297 298 297 297 297 297 297 297 298 298 298 298 298 299 299 299 298 297 297 297 297 297 297 297 297 296 296 296 295 295 295 295 295 295 295 294 295 296 295 296 296 296 296 296 297 297 296 296 296 296 296 296 295 295 295 295 295 295 295 295 295 294 295 295 296 295 295 295 294 295 294 294 294 294 294 294 294 294 294 294 295 295 295 295 294 294 293 293 293 294 294 294 296 296
297 297 297 297 297 298 298 298 298 297 297 297 297 297 296 296 296 297 297 298 298 298 298 298 298 297 297 296 296 296 296 296 296 296 296 296 295 294 294 294 294 295 295 295 295 296 296 295 296 297 296 296 296 297 296 296 296 295 295 295 295 295 295 295 294 295 294 295 295 294 294 294 295 295 294 293 293 294 293 293 294 293 293 293 294 293 294 294 294 294 295 295 294 293 293 292 292 292 293 293 294 295 294
296 296 296 296 296 296 296 296 296 296 296 296 296 296 296 296 296 296 296 297 297 296 296 296 296 296 296 296 296 296 296 296 296 296 296 295 295 294 294 293 294 294 295 296 296 296 295 296 296 297 297 296 295 296 295 296 295 295 295 295 295 295 295 294 294 294 293 294 294 293 293 293 294 293 293 292 292 293 292 292 293 293 293 293 293 293 293 293 294 294 294 294 293 292 291 290 291 291 292 292 292 293 292
295 295 295 295 295 295 295 295 295 295 295 295 295 296 296 296 296 296 296 295 295 295 295 296 296 296 295 295 295 295 295 295 295 295 295 295 294 294 293 293 293 294 294 295 295 295 296 296 296 296 296 295 295 295 294 295 294 294 294 294 295 295 294 294 294 294 294 294 293 292 292 292 292 292 292 292 292 292 292 292 292 292 292 292 292 292 292 293 293 293 293 293 292 291 290 290 290 290 290 291 291 290 289
294 294 295 295 295 295 295 295 295 295 295 295 295 295 295 295 295 295 295 295 295 295 294 295 295 295 295 294 294 294 294 294 294 294 294 294 293 293 293 293 293 294 294 294 294 294 295 296 296 295 294 294 294 294 293 293 293 293 294 294 295 294 295 294 294 294 294 293 292 291 291 291 292 291 291 291 291 291 291 291 291 291 291 290 290 290 291 292 292 292 292 292 291 289 288 288 288 289 289 289 289 288 288
294 294 294 294 294 294 295 295 295 294 295 295 295 295 295 295 295 294 294 294 294 294 294 294 294 294 294 293 293 293 293 293 294 293 293 293 293 292 292 293 293 294 293 292 292 292 293 294 295 295 294 294 294 294 293 293 293 294 294 294 294 293 294 294 294 294 292 291 291 291 291 291 291 291 290 290 290 290 290 290 290 289 289 289 289 289 289 290 291 291 291 290 290 289 287 287 287 288 288 288 287 286 286
294 295 294 294 294 294 294 294 294 294 294 294 294 294 294 294 294 294 294 293 293 293 293 294 294 294 293 294 294 293 293 293 293 292 292 292 292 292 292 292 292 292 292 292 293 293 293 294 294 294 293 292 292 292 293 293 293 294 294 294 294 293 292 292 293 293 291 290 290 289 290 290 290 290 289 289 289 289 289 289 288 288 288 288 288 288 288 289 289 289 289 289 289 288 287 286 286 286 287 287 286 285 286
295 295 294 294 294 294 294 294 294 294 294 294 294 294 293 293 293 293 293 293 293 293 293 293 293 294 294 294 294 293 293 292 292 292 292 291 291 291 291 291 291 291 292 292 293 293 292 292 292 293 292 291 291 292 292 292 293 294 294 293 293 291 291 292 291 290 290 289 289 288 289 289 289 288 288 288 288 288 287 287 287 287 287 286 287 287 287 287 287 287 288 288 288 287 285 285 286 286 286 286 286 285 285
295 294 294 294 294 294 294 294 294 294 294 294 294 293 293 293 293 293 293 293 293 293 293 293 293 293 294 294 293 293 292 292 292 292 292 291 291 291 291 291 291 291 291 292 292 293 292 291 291 291 291 291 292 292 293 293 293 293 293 292 292 292 292 291 290 288 289 289 288 288 288 288 288 287 287 287 287 286 286 286 285 285 285 285 286 286 286 286 286 286 287 287 287 286 286 285 285 284 284 284 285 285 285
294 293 293 293 293 294 294 294 294 293 293 293 293 293 293 293 292 292 292 292 292 292 292 293 293 293 293 292 292 292 292 292 292 291 291 291 291 291 291 291 291 291 291 291 291 291 291 291 291 291 290 291 291 292 292 292 292 293 292 292 291 291 289 288 288 288 288 288 287 287 287 287 287 287 287 287 286 286 285 285 285 285 284 284 285 285 285 285 285 284 286 287 286 286 285 284 283 283 283 283 283 284 284
293 293 293 293 293 293 293 293 293 293 293 292 292 292 292 292 292 292 292 292 292 292 292 292 292 292 292 292 292 291 291 291 291 291 291 291 291 291 291 291 291 291 291 291 291 290 290 290 290 290 290 290 291 291 290 289 289 289 289 288 288 288 288 288 288 288 287 287 287 287 287 287 286 286 286 286 285 285 284 284 284 284 283 283 283 284 283 283 283 283 285 286 286 286 285 284 282 282 282 282 282 282 283
292 292 292 292 293 293 293 292 292 292 292 292 292 291 291 291 291 291 291 291 291 291 291 291 291 291 291 291 291 291 291 291 291 291 291 291 291 291 291 291 291 290 291 290 290 290 290 289 289 290 290 290 291 291 289 288 287 287 287 287 287 288 288 287 287 288 287 286 286 286 286 286 285 285 285 285 284 284 284 283 283 283 282 282 282 282 282 282 282 284 284 284 284 284 285 283 282 281 281 280 280 280 282
292 292 292 292 292 292 292 292 292 291 291 291 291 291 290 290 291 291 291 290 290 290 290 290 290 290 290 291 291 291 291 291 290 290 290 290 290 290 290 290 290 290 290 290 290 289 289 289 289 289 289 289 290 289 288 287 287 287 287 287 287 287 287 287 287 287 286 286 285 285 285 285 285 284 284 284 284 283 283 283 283 282 282 282 282 282 281 281 281 283 283 283 283 283 283 282 281 281 280 280 279 280 280
291 292 292 292 292 291 291 291 291 291 290 290 290 290 290 290 290 290 290 290 289 290 289 289 289 289 289 290 290 290 290 290 289 289 290 289 290 289 289 289 289 289 289 289 289 289 288 288 288 289 288 288 288 287 287 286 286 286 286 286 287 287 286 286 286 286 285 285 285 284 284 284 284 284 283 283 283 282 282 282 282 282 281 281 281 281 281 281 281 282 281 281 280 280 280 280 280 281 280 279 279 280 279
291 291 291 291 291 291 291 290 290 290 290 290 290 290 289 289 289 289 289 289 289 289 289 288 288 288 288 288 288 288 288 289 288 289 289 289 289 289 289 288 288 288 288 288 288 288 288 288 288 288 288 288 288 287 286 286 286 286 286 286 286 286 285 285 285 285 284 284 284 284 284 283 283 283 282 282 282 282 281 281 281 281 281 281 281 281 280 280 280 280 280 279 279 279 279 279 280 280 279 279 278 278 278
291 291 291 291 291 291 290 290 290 290 290 289 289 289 289 288 288 288 288 288 288 288 288 288 287 287 287 287 287 287 287 287 288 288 288 288 288 288 288 287 287 287 287 287 287 287 287 287 288 288 288 287 287 286 286 286 286 286 286 285 285 284 284 284 284 284 284 283 283 283 283 282 282 282 281 281 281 281 281 281 281 281 281 281 281 281 280 280 280 279 279 279 279 279 279 279 279 279 279 278 278 278 277
291 290 290 290 290 290 290 289 289 289 289 289 289 288 288 288 288 288 287 287 287 287 287 287 286 286 286 286 286 286 286 286 286 286 287 287 288 288 287 287 286 286 286 286 287 286 286 287 287 287 287 286 285 285 285 285 285 285 285 284 284 284 284 284 284 283 283 283 282 282 282 281 281 281 280 280 280 280 280 280 280 280 280 280 280 280 280 279 279 279 279 279 279 279 279 279 279 279 278 278 277 277 276
290 290 290 290 290 290 289 289 289 288 289 288 288 288 288 287 287 287 286 286 286 286 286 286 286 286 286 285 285 284 284 284 285 286 286 287 287 287 286 286 286 285 285 286 286 286 286 286 286 286 286 286 285 284 284 284 284 284 284 283 283 283 283 283 282 282 282 282 282 281 281 280 280 280 280 280 280 280 280 280 280 280 280 280 280 280 280 280 279 279 279 279 279 279 279 279 279 278 278 277 277 276 276
290 290 290 290 290 289 289 289 288 288 288 288 288 287 287 287 286 286 286 286 285 285 285 285 285 285 285 285 284 284 283 283 284 286 286 286 286 286 286 285 285 285 285 285 286 286 286 286 285 285 285 285 284 284 284 283 283 283 283 283 282 282 282 281 281 281 281 281 281 281 281 280 279 279 279 279 279 280 280 280 280 280 280 280 280 280 280 280 279 279 279 279 279 279 279 279 278 278 277 277 277 277 276
291 291 291 290 290 289 289 289 288 288 288 288 287 287 287 286 286 286 285 285 285 285 284 284 284 284 284 284 283 283 283 283 284 286 286 286 286 286 285 285 285 285 285 285 285 285 285 285 284 284 284 284 284 284 283 282 282 282 282 282 282 281 281 280 280 280 280 280 280 280 280 279 279 279 279 279 279 279 279 279 279 279 279 279 279 280 280 279 279 279 279 279 279 279 279 278 278 278 277 277 277 277 276
291 291 291 290 290 289 289 288 288 288 288 288 287 287 286 286 285 285 285 285 285 284 284 283 283 283 283 283 282 282 282 283 284 286 286 286 285 285 285 284 284 284 284 284 284 284 284 284 283 283 283 283 283 282 282 282 281 281 281 281 281 281 280 280 280 280 279 279 279 279 279 279 278 278 279 279 279 279 279 279 279 279 279 279 279 278 279 279 279 278 279 279 279 279 279 278 278 278 278 277 277 277 277
291 291 290 290 289 288 288 288 288 288 288 287 287 286 286 286 285 285 285 284 284 284 283 283 282 282 282 282 282 282 282 283 284 286 285 285 285 285 284 284 284 284 284 284 284 283 283 283 283 282 282 282 282 282 281 281 281 281 281 281 281 281 280 280 279 279 278 278 278 278 278 278 278 278 278 278 278 278 278 278 278 278 278 278 278 278 278 278 278 279 279 279 279 279 278 278 278 278 277 277 277 277 276
291 290 290 289 289 288 288 288 288 288 288 287 286 286 286 285 285 285 285 284 284 283 283 282 282 281 281 282 282 282 282 283 284 285 285 284 284 284 284 284 284 284 284 283 283 283 282 282 282 282 281 281 281 281 280 280 280 280 281 281 280 280 280 279 278 278 277 277 278 278 278 278 278 278 278 278 278 277 277 277 277 277 278 277 277 277 277 278 278 279 279 279 279 279 279 279 278 277 276 276 276 276 275
290 290 290 289 288 288 288 288 288 288 287 287 286 286 285 285 285 285 284 284 283 283 283 282 281 281 281 281 281 281 281 283 284 285 284 284 283 283 284 284 283 283 283 283 283 282 282 282 282 282 281 281 281 280 280 280 280 280 280 280 279 279 278 278 277 277 277 277 277 277 277 277 278 277 277 277 277 277 277 277 277 277 277 277 277 277 277 278 278 278 278 279 279 279 279 279 278 276 275 275 275 275 275
290 290 289 289 288 288 288 288 288 287 287 286 286 286 285 285 285 284 284 283 283 283 283 282 282 280 280 280 280 280 281 282 284 284 284 283 283 283 283 283 283 283 282 282 282 281 281 281 281 281 281 280 280 280 280 280 280 280 280 279 279 278 277 277 276 276 277 277 277 277 277 277 277 277 277 277 277 277 277 277 276 276 276 276 276 277 277 278 278 278 279 279 279 280 279 278 277 275 274 274 274 273 274
290 289 289 288 288 288 288 288 288 287 286 286 285 285 285 284 284 284 283 283 283 282 282 282 281 280 279 279 280 280 280 282 284 284 284 283 283 283 283 283 283 282 282 281 281 281 280 280 280 281 280 280 280 280 281 281 281 280 279 278 278 277 277 276 276 276 277 276 276 276 276 276 276 276 276 276 276 276 276 276 276 276 276 276 276 276 277 277 278 279 280 280 281 280 279 278 276 274 273 273 273 273 274
290 289 289 288 288 288 288 288 287 286 286 285 285 285 284 284 284 283 283 282 282 282 282 281 281 280 279 279 279 279 280 282 283 284 283 283 282 282 283 283 282 282 281 281 280 280 280 280 280 280 280 280 281 281 281 281 280 279 278 277 277 276 276 276 276 276 276 276 276 276 275 275 275 275 276 276 276 276 276 276 275 275 275 276 276 277 278 278 279 280 281 281 281 281 279 277 275 274 273 273 273 274 275
290 289 289 289 289 288 288 287 286 285 285 285 284 284 284 284 283 283 283 282 282 282 282 281 280 279 279 279 278 278 280 282 283 283 282 282 282 282 282 282 282 281 280 280 280 280 280 279 279 280 281 281 281 281 281 280 278 278 277 276 276 276 276 276 276 275 275 275 275 275 275 275 275 275 275 275 275 275 275 275 275 275 275 276 276 278 281 281 282 282 282 281 281 281 278 276 274 273 274 274 274 275 275
290 289 289 289 288 288 287 286 285 285 285 284 284 284 284 283 283 283 283 282 282 282 282 282 281 280 279 278 278 279 281 282 282 282 282 282 282 282 282 282 281 281 280 280 280 280 280 280 280 281 281 281 281 281 279 278 277 277 276 276 276 276 276 276 275 275 275 275 275 275 275 275 275 274 274 274 275 275 275 275 275 275 275 276 278 281 284 285 285 284 284 282 281 279 276 274 273 273 275 276 276 276 276
290 289 289 289 288 287 286 285 285 285 284 284 284 284 283 283 283 283 283 282 281 281 282 281 281 280 279 278 278 279 281 282 282 282 281 282 282 282 282 282 281 280 280 280 280 281 281 282 282 282 281 281 280 279 278 277 277 276 276 276 276 276 276 275 275 274 274 275 275 274 274 274 274 274 274 274 274 274 274 274 275 275 276 277 279 283 284 285 285 285 285 283 281 277 275 273 273 273 276 277 277 277 277
290 289 288 288 287 286 285 285 284 285 284 284 284 283 283 283 282 282 282 281 281 281 281 281 280 279 278 278 278 279 281 281 281 281 281 281 282 282 282 281 280 280 280 280 281 282 283 282 282 281 280 279 279 277 277 277 276 276 275 275 275 275 275 275 274 274 274 275 275 273 273 273 273 273 273 273 273 273 273 274 274 274 275 277 280 283 284 284 285 285 285 284 282 277 275 275 275 276 276 277 277 277 276
289 288 287 286 285 285 285 285 285 284 284 284 284 283 283 282 282 282 281 281 281 282 282 281 280 279 278 278 279 280 281 281 281 281 281 281 281 281 281 280 280 279 280 281 282 283 282 282 281 280 279 278 278 277 276 276 276 275 275 275 275 275 274 274 274 274 274 274 273 273 273 273 273 273 273 273 273 273 273 273 273 274 274 277 280 283 284 284 285 285 285 284 282 279 276 275 276 277 277 277 277 276 276
288 287 286 286 285 285 285 285 285 284 284 284 283 283 282 282 282 282 281 281 281 282 282 281 280 279 278 278 280 281 280 280 280 280 280 280 280 280 280 280 279 280 281 282 282 282 282 281 280 279 278 278 277 276 276 276 276 276 276 276 275 275 274 274 274 274 273 273 273 273 272 272 272 272 272 272 272 272 273 273 273 273 273 276 280 283 284 284 284 285 284 283 282 280 277 276 276 277 277 276 276 276 276
287 286 286 285 285 285 285 285 284 284 283 283 283 283 283 282 282 281 281 281 282 282 281 281 279 277 278 279 281 280 280 279 279 279 280 280 280 280 280 280 280 281 282 282 282 282 281 280 280 278 277 277 276 275 276 276 276 276 276 276 275 275 274 274 274 273 272 272 272 272 272 272 272 272 272 271 271 272 272 273 273 273 273 275 279 283 284 284 284 284 283 283 281 281 278 276 275 276 276 276 276 276 276
286 286 285 285 285 284 284 284 284 284 284 284 284 284 283 282 281 281 281 282 282 281 280 279 278 278 279 280 281 280 279 278 278 279 280 280 280 279 279 280 281 282 282 282 281 280 280 279 278 277 276 276 276 275 276 276 277 277 276 275 275 274 274 274 273 272 272 272 272 272 271 272 272 272 271 271 271 271 272 272 272 272 272 275 279 283 283 284 284 284 283 282 281 280 278 276 275 275 275 275 275 275 275
285 285 285 284 284 284 284 284 284 284 284 283 283 283 282 281 280 281 281 281 281 280 278 278 278 279 280 280 280 280 280 279 279 279 280 280 280 279 280 281 282 282 281 280 279 279 278 278 277 276 276 275 276 276 276 277 277 276 275 274 273 273 273 273 272 272 272 272 272 272 272 272 272 271 271 271 271 271 271 271 272 271 271 274 279 283 283 283 283 283 283 282 281 280 278 276 274 274 274 274 274 274 274
285 284 284 284 284 284 284 283 283 283 283 283 282 281 280 280 280 280 280 280 279 278 278 278 279 280 280 280 280 279 279 279 279 279 279 280 280 280 280 281 281 281 280 279 278 278 278 277 277 276 275 275 276 276 277 277 277 276 274 273 273 273 272 272 272 273 273 273 273 273 272 272 272 272 272 272 272 271 271 271 271 271 271 275 280 282 282 282 282 282 282 282 281 280 277 274 273 272 273 273 273 273 273
284 284 284 284 284 284 284 284 284 283 283 282 281 281 280 280 281 280 280 279 279 279 278 278 279 280 280 280 279 279 279 279 279 279 279 279 280 281 281 281 281 280 279 278 277 277 277 276 276 275 275 275 276 277 277 277 276 275 274 274 274 273 273 272 272 272 272 272 272 272 272 272 272 272 271 271 271 271 271 271 270 270 271 275 280 281 281 281 281 281 281 281 281 279 276 273 272 272 272 272 272 272 272
Wind_Speed
12 14 15 15 15 14 13 12 12 12 12 12 11 10 9 9 9 8 7 5 4 3 3 3 3 3 3 3 3 3 3 3 3 3 3 2 2 2 2 3 3 3 3 3 3 3 2 1 0 1 0 1 3 5 6 7 8 8 7 6 5 3 2 2 3 5 7 8 8 7 7 6 6 6 6 6 6 6 6 4 3 3 5 6 6 5 6 8 10 9 7 6 6 4 4 4 4 4 3 3 3 3 3
15 15 15 15 15 14 12 11 11 12 13 13 12 10 11 11 11 10 8 6 4 3 4 4 4 3 3 3 4 4 4 4 4 4 3 3 2 2 2 3 3 3 2 2 2 3 2 1 0 0 1 3 5 6 6 6 6 6 6 5 4 3 2 3 4 5 7 7 6 4 3 3 3 4 5 6 7 7 7 6 5 4 5 6 7 7 9 10 11 10 8 6 5 4 4 4 4 4 4 3 2 1 1
16 16 16 15 15 14 14 13 13 13 14 13 11 11 12 13 11 9 7 6 5 4 5 5 4 3 3 4 4 4 4 4 4 3 3 3 2 2 2 2 2 2 2 2 2 1 1 1 1 1 2 4 6 7 6 5 5 5 5 5 4 4 2 2 3 4 5 5 5 3 2 2 2 3 6 8 8 7 7 6 5 5 5 5 5 6 8 10 12 12 10 7 4 4 3 3 3 4 3 3 2 1 0
16 16 16 15 15 15 15 15 15 15 13 11 11 13 14 13 12 10 9 8 8 8 7 6 4 4 4 4 4 5 5 5 4 4 3 3 2 1 2 2 1 1 1 1 1 1 1 1 1 2 3 5 6 6 4 4 4 5 5 5 5 6 5 3 3 3 4 3 3 2 1 1 3 6 7 7 7 6 6 5 5 4 5 5 6 7 10 11 11 9 8 6 5 5 4 4 3 2 3 3 3 2 1
15 15 15 15 15 15 15 15 15 15 14 14 14 14 13 12 12 11 12 12 12 12 11 9 8 6 6 5 5 5 5 4 3 2 2 2 1 1 1 2 1 0 0 0 1 2 2 1 0 2 5 6 6 5 5 6 7 9 8 7 7 8 7 6 3 2 1 1 1 1 1 2 4 5 6 6 5 5 4 4 4 3 3 4 5 6 7 7 6 4 5 5 5 4 4 4 4 2 2 3 3 3 2
14 13 13 13 15 15 16 16 15 13 13 13 13 13 13 13 14 14 13 13 12 12 12 11 10 9 8 7 6 5 5 5 4 3 2 2 2 2 1 2 2 2 2 2 2 1 1 0 2 4 6 6 7 6 6 7 8 8 8 7 7 8 7 6 5 5 4 4 3 2 1 1 2 3 4 4 4 3 3 3 4 4 3 4 4 4 3 3 3 3 4 4 4 3 2 3 4 4 4 4 4 6 6
12 13 14 14 15 16 16 15 14 13 13 13 12 13 13 13 14 14 13 13 13 13 13 12 12 11 10 10 9 8 7 7 6 5 4 4 3 3 2 2 3 3 3 3 2 0 1 3 4 5 5 5 4 4 5 5 5 4 4 4 5 6 6 5 4 4 5 4 3 1 1 1 1 2 3 3 3 2 3 3 2 2 2 2 2 2 3 4 4 5 5 4 4 4 3 4 4 6 6 6 6 7 7
12 13 15 15 15 15 15 14 13 14 15 14 13 12 12 13 13 13 11 12 12 13 12 12 12 12 12 11 10 9 7 7 7 5 4 4 4 3 2 1 0 2 2 1 1 1 2 2 3 3 3 3 3 3 3 3 3 3 3 3 4 5 4 3 3 3 4 3 3 3 3 3 2 1 1 1 1 2 1 1 1 1 1 0 1 2 4 4 5 4 4 4 5 5 6 6 7 6 6 6 6 6 6
12 13 14 14 13 12 13 13 14 15 16 15 14 13 12 12 12 12 11 11 12 12 12 11 11 11 10 10 9 8 7 6 6 4 3 3 3 2 2 2 2 2 1 2 3 3 2 2 2 3 3 3 3 2 2 2 2 2 3 4 5 7 6 6 6 6 7 7 7 7 6 6 5 4 3 2 2 2 2 2 2 2 2 2 3 4 4 4 4 4 4 6 7 7 6 6 6 4 4 4 5 4 4
10 11 13 12 11 11 13 14 14 15 14 14 13 12 10 10 11 11 12 12 12 12 12 12 12 11 10 9 8 7 7 6 5 4 3 3 2 2 2 2 3 3 3 3 3 3 3 2 3 3 3 3 3 3 3 3 3 3 4 5 7 8 8 9 9 9 9 9 9 8 7 6 6 6 5 5 4 4 4 4 4 4 4 4 4 4 3 4 4 5 6 6 6 5 5 4 4 2 1 2 3 3 3
9 10 11 12 12 12 12 13 13 13 13 12 11 9 8 9 10 11 11 12 13 13 13 13 13 13 12 10 8 8 7 7 6 5 4 4 3 3 3 3 3 3 2 2 2 2 2 2 2 3 3 3 3 3 3 3 3 3 4 5 6 8 8 9 9 9 9 9 8 8 7 6 6 7 6 6 6 6 5 5 5 4 4 4 4 4 4 5 5 6 6 6 5 4 3 2 2 1 2 1 2 3 3
11 12 11 12 13 12 12 12 11 11 11 11 9 7 8 9 9 10 11 12 12 12 12 13 13 13 12 11 10 10 10 9 8 7 6 5 5 4 4 3 3 2 2 2 2 2 2 2 2 2 3 2 2 2 2 2 3 4 4 4 5 7 8 9 9 8 8 8 8 8 8 8 7 7 7 7 7 7 6 5 5 4 5 5 4 5 5 5 5 5 5 4 4 3 2 2 2 2 2 2 2 3 3
12 12 12 12 14 13 12 11 10 10 10 9 7 6 7 8 9 9 11 11 12 12 12 12 12 12 11 10 9 9 9 10 10 10 8 7 6 5 5 5 5 4 4 3 3 2 2 2 2 3 3 2 2 2 2 3 4 4 4 4 5 6 8 9 9 8 8 9 10 10 10 9 8 8 8 8 8 7 6 6 5 5 5 5 5 5 5 4 4 3 4 4 3 2 2 2 2 2 2 2 2 3 3
12 12 12 12 13 13 12 11 10 9 8 7 7 7 8 9 9 9 10 11 11 11 11 11 11 11 11 10 8 7 8 8 8 8 7 7 6 5 6 6 6 6 5 4 3 2 2 1 1 2 2 2 2 2 3 4 4 4 4 4 5 5 7 8 9 10 10 10 11 11 11 11 10 8 8 8 8 7 6 6 5 5 5 5 4 4 4 3 3 3 4 4 3 3 2 2 2 2 2 2 2 3 3
11 11 11 11 11 11 11 11 9 8 7 8 8 8 9 9 9 9 9 10 10 10 10 11 11 11 10 9 8 6 7 8 8 7 7 6 6 6 6 6 5 5 5 4 3 2 2 1 1 1 2 2 3 3 4 4 5 5 5 5 5 5 5 7 8 10 11 11 11 10 11 11 10 9 8 8 8 8 7 6 6 5 5 4 4 3 3 3 4 4 4 4 4 3 3 3 3 2 2 3 3 3 3
10 10 10 10 10 10 10 10 9 8 9 9 8 8 9 8 8 8 9 9 10 10 10 11 11 11 9 8 7 6 7 9 9 8 7 7 7 7 6 5 5 5 5 4 3 2 2 2 2 2 2 3 3 3 4 5 5 5 5 5 5 5 5 5 6 8 10 11 11 10 10 10 10 9 8 8 8 8 7 6 6 5 5 4 4 4 4 4 5 5 5 5 5 4 4 4 3 4 3 3 3 4 3
9 9 9 8 8 8 9 10 10 10 9 8 8 8 8 8 8 9 9 9 10 10 10 11 11 10 8 7 6 6 7 8 8 8 7 7 6 6 6 6 5 5 5 4 3 3 3 2 2 3 3 4 4 3 4 5 5 5 5 5 5 5 5 5 5 5 7 8 9 9 9 9 8 9 8 7 7 7 6 6 5 5 5 4 4 5 5 5 5 5 6 6 5 5 4 4 4 4 4 3 3 4 4
10 8 7 7 7 7 9 11 11 9 8 7 7 8 8 9 9 9 9 9 9 10 10 11 11 9 7 6 6 7 8 8 8 9 8 7 6 6 6 6 5 6 6 5 4 3 3 3 3 4 4 4 4 4 4 4 5 5 4 4 4 4 4 4 4 4 4 5 7 8 8 7 7 7 7 6 6 6 5 5 5 6 5 5 5 5 5 5 5 5 5 5 5 5 4 4 4 5 4 4 4 5 5
10 8 7 6 7 8 10 10 9 7 7 7 7 8 9 9 8 8 8 8 9 9 10 10 10 8 7 7 7 8 8 8 9 9 8 7 7 6 6 5 5 6 6 5 4 4 4 4 4 5 5 4 4 4 4 4 4 4 4 4 4 3 4 4 4 4 4 5 6 7 7 7 6 6 6 6 6 6 5 5 5 6 5 5 5 5 4 4 4 4 5 4 4 4 4 4 5 6 5 5 5 5 5
9 8 7 6 7 8 10 10 9 6 6 7 7 8 9 8 8 7 7 8 8 8 9 10 9 7 7 7 7 7 7 7 8 9 8 8 7 7 6 5 6 6 6 5 4 4 4 5 5 5 5 5 4 4 4 4 4 4 4 3 3 3 4 4 4 4 4 5 5 6 7 7 6 6 6 6 6 6 5 5 5 5 5 5 5 4 4 5 5 5 4 4 3 4 4 4 5 5 5 5 5 5 4
9 8 8 7 7 8 9 9 8 6 6 7 7 8 8 8 7 7 7 7 7 7 8 9 9 7 7 7 7 6 6 7 8 9 8 8 8 7 6 6 6 7 6 5 4 4 5 5 5 5 5 4 4 4 4 4 4 4 3 3 4 4 4 4 4 5 5 5 5 6 7 7 6 5 6 6 6 6 5 5 5 5 5 5 5 5 5 6 6 5 4 4 4 5 5 5 5 5 5 5 5 4 4
9 9 8 8 8 9 9 8 7 7 7 8 8 8 7 7 7 7 7 7 7 7 8 9 9 8 6 6 6 5 5 6 8 8 8 8 8 7 6 6 6 6 5 5 5 5 5 5 5 5 5 4 4 4 4 4 3 4 4 4 4 4 4 4 4 5 5 5 5 5 6 6 5 5 5 5 5 5 5 5 5 5 5 6 6 6 6 7 7 6 4 4 4 5 5 5 6 6 5 5 5 5 5
10 9 8 8 8 8 8 8 8 8 8 7 7 7 7 7 7 7 6 6 6 6 7 8 9 8 5 5 5 5 6 7 8 8 8 8 8 7 6 5 5 5 4 4 4 5 5 5 5 4 4 4 4 4 3 3 3 4 4 4 4 3 4 4 4 4 4 4 5 5 5 5 4 5 5 5 5 5 5 5 5 6 6 7 7 7 7 7 7 7 5 4 5 6 6 6 6 6 5 6 7 7 7
9 8 8 8 7 7 7 7 7 7 7 7 7 6 6 7 7 7 6 6 6 7 7 8 8 7 5 5 5 5 6 7 7 8 9 8 7 7 6 6 5 5 4 4 4 4 5 5 4 4 4 4 4 3 3 3 3 3 3 3 3 3 3 3 3 3 4 4 4 4 4 4 4 5 5 6 6 6 6 7 7 8 8 8 8 8 8 8 8 7 5 5 5 6 6 6 6 6 6 6 7 7 7
8 8 7 7 6 6 6 6 7 7 7 7 6 6 6 6 6 6 6 7 7 7 7 7 8 7 6 6 6 6 6 7 7 8 8 7 7 7 7 6 6 5 5 4 4 4 4 5 5 4 3 3 3 3 3 3 3 3 3 3 3 3 3 3 3 3 3 3 3 4 4 5 5 6 6 7 7 7 7 8 8 8 8 8 8 8 8 8 7 7 5 5 5 6 6 6 6 5 6 7 7 7 6
7 6 6 5 5 5 6 6 6 7 6 6 6 6 6 5 5 5 6 7 7 7 7 7 7 7 6 5 6 6 6 7 7 8 7 7 6 6 6 6 6 6 5 5 4 4 4 4 4 4 3 3 3 3 3 3 3 3 4 4 3 3 3 3 3 3 3 3 4 5 6 6 6 7 7 7 7 8 8 8 8 8 8 8 8 8 7 7 6 6 5 5 5 5 5 5 5 5 5 6 6 6 5
6 5 5 4 4 5 6 6 6 6 6 6 6 6 6 5 5 5 6 6 6 5 6 6 6 6 5 5 5 6 6 7 7 7 7 6 6 5 5 5 6 6 6 5 5 4 5 4 4 4 3 3 3 3 3 3 3 3 4 4 3 3 3 3 3 3 3 4 5 6 6 6 6 6 7 7 7 7 7 7 7 7 7 7 7 7 7 6 5 6 5 4 4 4 5 5 5 5 5 5 5 5 4
6 5 4 4 4 5 5 5 6 6 5 6 6 6 6 5 5 4 5 5 5 5 5 6 6 5 5 5 6 6 6 6 6 6 5 5 5 5 5 5 5 5 5 5 5 5 5 5 4 4 4 4 4 3 3 3 3 3 3 3 3 3 3 3 3 3 4 4 5 5 5 5 5 5 6 6 6 6 6 6 6 6 6 7 7 6 6 6 5 5 4 4 4 4 4 4 5 5 5 5 4 5 4
6 5 4 4 4 4 4 4 5 5 5 5 6 6 6 5 4 4 4 4 4 5 6 6 6 5 5 6 6 6 6 6 5 5 5 5 5 6 5 5 5 5 5 5 6 6 7 6 5 4 4 4 4 3 3 3 3 3 3 3 3 3 3 3 3 3 4 4 4 4 5 5 5 5 5 5 5 5 5 5 5 5 6 6 6 6 6 6 5 5 4 3 3 3 4 4 4 4 4 4 4 3 3
5 5 4 4 4 4 4 4 4 4 4 5 5 5 5 4 4 4 4 4 4 5 6 7 7 6 6 6 6 5 5 5 5 4 4 5 6 6 5 5 5 5 5 5 5 6 6 6 5 4 4 4 3 3 3 3 3 3 3 3 3 3 3 3 3 3 3 3 4 4 4 4 4 4 4 4 4 4 4 4 4 5 5 5 5 5 5 5 5 4 3 3 3 2 2 2 3 3 4 3 3 3 3
4 4 4 4 4 4 5 5 4 4 4 4 4 4 4 4 4 4 4 4 5 5 6 6 6 7 6 5 4 4 4 5 4 4 4 4 5 5 5 5 5 5 5 5 5 5 6 5 4 4 4 4 3 3 4 4 4 3 3 3 3 3 3 3 3 3 3 3 3 3 3 3 3 3 3 3 3 3 3 3 4 4 4 4 4 5 5 4 4 3 2 2 2 2 2 2 2 3 3 3 3 3 3
5 5 5 5 5 5 5 4 4 4 3 3 4 4 4 4 3 4 4 5 6 6 6 5 5 5 5 4 3 3 3 4 4 4 4 4 4 5 4 5 5 5 5 6 6 6 5 5 4 4 3 3 3 4 5 5 4 3 3 3 3 2 2 2 3 3 3 3 3 3 3 3 3 3 3 3 3 3 3 3 3 3 3 3 3 3 4 4 3 2 2 2 2 2 1 2 2 2 2 2 3 3 3
5 5 4 4 4 4 4 4 4 4 4 4 4 4 4 4 4 5 6 6 6 6 5 5 5 4 4 3 3 3 4 4 5 5 4 4 4 4 4 4 5 5 6 6 6 6 5 5 4 3 3 3 3 4 4 5 4 4 4 3 3 2 2 2 2 2 2 2 2 2 3 3 3 3 3 3 3 2 3 3 3 3 3 3 3 3 3 3 3 2 2 1 1 2 2 2 2 2 2 2 3 3 3
4 4 4 4 4 4 4 4 4 4 4 4 4 4 4 4 4 5 6 6 5 5 5 5 5 4 4 4 4 4 4 4 4 5 4 4 3 4 4 5 5 5 5 5 5 5 5 5 4 4 4 4 4 4 4 4 3 3 3 3 2 2 1 1 1 2 2 2 2 2 3 3 3 3 3 3 3 2 3 3 3 3 3 3 3 2 2 2 2 2 2 2 2 2 2 2 3 3 2 2 3 3 3
4 4 4 4 4 3 3 3 3 4 4 4 4 4 4 5 5 6 5 5 5 5 5 5 4 4 4 4 4 4 4 4 4 4 4 3 3 4 5 5 5 5 4 4 4 4 4 4 4 4 4 4 4 4 4 3 3 2 2 2 1 1 1 1 1 1 1 2 2 3 2 2 2 2 2 2 2 3 3 3 3 3 3 3 3 3 2 2 2 2 2 2 3 2 2 3 3 3 3 3 3 3 3
4 3 4 4 4 3 3 3 3 3 3 4 4 5 6 6 5 5 4 4 5 5 5 4 4 4 4 4 4 4 3 3 4 4 3 3 3 3 4 5 5 4 3 3 3 3 3 3 3 3 3 3 4 4 3 2 2 2 2 1 0 0 1 1 1 1 1 2 2 2 2 2 2 2 2 2 2 3 3 3 3 3 3 3 3 3 3 2 2 2 2 3 4 3 3 3 3 3 3 3 3 3 3
4 4 4 4 4 3 3 3 3 3 4 5 5 5 5 5 5 5 5 4 4 4 4 3 3 3 4 4 4 3 3 3 3 3 3 3 3 3 4 4 4 3 3 2 2 2 2 2 2 3 3 3 3 3 2 2 1 1 1 0 0 0 1 1 1 1 1 1 1 2 2 2 2 2 2 2 2 3 3 4 4 4 4 4 4 4 3 2 2 2 2 3 4 4 4 4 4 4 4 4 4 4 3
4 4 4 4 4 3 3 4 4 4 5 5 5 5 5 4 4 5 4 4 3 3 3 3 3 3 4 4 3 3 2 2 2 2 2 2 2 3 3 3 3 2 2 2 2 1 1 2 2 3 2 2 2 2 1 1 1 0 0 0 0 0 0 1 1 1 1 1 1 1 2 2 2 2 2 2 3 3 4 4 5 5 5 5 5 4 3 2 2 2 3 4 5 5 5 5 4 4 4 4 4 4 4
4 4 4 4 4 4 4 4 5 5 5 5 4 4 4 4 4 4 3 3 2 2 3 3 3 3 4 3 3 2 2 2 2 2 2 2 3 3 3 3 2 2 2 2 2 1 1 2 2 2 2 2 1 1 0 0 1 1 1 1 1 0 1 1 1 2 1 1 1 1 2 2 3 3 3 3 4 4 5 5 6 6 6 6 6 5 4 3 3 3 4 4 5 6 6 6 5 4 4 4 4 5 5
4 4 4 4 4 4 5 5 5 5 4 4 4 4 4 3 3 3 2 2 2 3 3 3 3 3 3 3 3 2 2 1 2 2 2 3 3 3 3 2 2 2 2 1 1 1 1 2 2 2 1 1 1 0 1 1 1 1 1 1 1 1 1 1 2 2 2 2 2 2 2 2 3 3 3 4 5 5 6 6 6 6 7 6 6 6 5 5 4 4 4 4 5 6 6 6 6 5 4 4 4 5 5
4 4 4 4 4 5 6 6 5 5 4 3 3 3 3 2 2 2 2 2 3 3 3 3 3 3 3 2 2 2 1 1 2 3 3 3 3 3 2 2 1 2 1 1 1 1 1 2 2 1 1 0 0 0 1 1 1 1 1 1 1 1 1 2 2 2 2 3 2 2 2 2 3 3 3 4 5 6 6 6 6 7 7 7 7 7 7 6 6 5 5 5 5 6 6 6 6 5 4 4 4 4 5
4 4 4 5 5 5 5 4 4 3 3 2 2 2 2 2 2 2 2 2 2 2 2 2 2 2 2 2 2 2 1 1 2 3 3 3 3 3 2 2 1 1 1 1 1 1 1 1 1 1 0 0 1 1 1 2 1 1 1 1 1 1 1 2 2 3 3 3 3 3 3 3 3 3 4 4 5 5 5 6 6 6 6 6 6 6 7 7 7 7 6 5 5 6 6 5 5 4 4 4 4 4 4
5 5 5 4 4 4 4 3 3 2 2 2 2 2 2 1 1 1 1 1 2 2 2 2 2 2 2 2 2 2 1 1 2 3 3 3 3 3 3 2 1 1 1 1 0 1 1 1 1 1 1 1 1 2 2 2 2 2 1 1 1 1 1 2 3 3 3 3 3 3 3 3 3 3 4 4 4 4 5 5 5 6 6 6 6 6 6 6 7 7 7 6 6 5 5 4 4 3 3 3 3 3 3
5 5 4 4 3 3 3 2 2 1 1 1 1 1 1 1 1 1 1 1 2 2 2 2 2 2 1 1 2 1 1 0 2 3 3 3 3 3 3 2 2 1 1 1 0 0 1 1 1 2 2 2 2 2 2 2 2 2 1 1 1 1 1 2 2 3 3 3 3 3 3 3 3 3 3 4 4 4 4 4 5 5 5 5 5 5 5 6 6 7 7 7 6 6 5 5 4 3 3 3 3 3 3
5 4 4 3 3 2 2 1 1 1 1 1 1 1 0 0 1 1 1 2 2 2 2 2 2 2 1 1 1 1 1 0 1 2 3 2 2 2 3 3 2 2 1 1 1 2 2 2 2 3 3 3 2 2 2 2 2 2 1 1 2 2 2 1 2 2 3 3 3 3 3 3 3 2 3 3 4 4 4 4 4 5 5 5 5 5 5 6 6 7 7 7 6 7 6 5 5 3 3 3 3 3 4
5 4 3 3 2 1 1 0 1 1 1 1 1 1 1 1 1 1 1 1 2 2 2 3 3 2 2 1 1 1 1 0 1 2 2 2 2 2 2 3 2 2 2 2 2 3 3 3 3 3 3 2 2 2 2 2 2 1 0 1 1 2 1 1 1 2 2 3 3 3 4 4 3 2 2 3 3 3 4 4 4 4 5 5 5 6 6 6 6 6 6 6 6 7 6 6 5 4 3 4 4 4 4
5 4 3 2 1 1 0 1 1 1 1 2 2 2 2 2 2 1 1 1 1 1 2 2 3 3 2 1 1 1 1 0 0 2 2 2 2 2 2 2 3 3 3 3 3 3 3 4 4 3 2 2 2 2 2 2 1 0 0 1 1 1 1 1 1 2 2 2 2 2 3 3 3 2 2 2 2 3 3 4 4 4 5 6 6 6 6 6 6 6 6 6 6 6 6 5 4 3 3 3 4 4 5
4 4 3 2 2 1 1 1 1 1 2 2 2 2 2 3 3 2 2 2 2 2 2 3 3 3 2 2 1 1 1 0 0 1 2 2 2 2 2 3 3 3 3 3 3 4 4 3 3 2 2 2 2 2 2 2 1 1 1 1 1 1 1 2 2 1 1 1 1 1 2 2 2 3 3 3 3 3 4 4 5 5 5 6 6 6 6 6 6 6 6 6 6 6 5 5 4 3 3 3 3 4 5
3 4 3 3 2 2 2 2 2 2 2 2 2 2 3 3 3 3 3 3 3 3 3 3 3 3 2 2 1 1 1 1 1 1 1 1 1 2 3 3 3 3 3 3 3 3 3 2 2 2 2 2 2 2 2 1 1 1 2 2 2 2 2 2 2 1 1 1 1 1 1 2 2 3 4 4 5 5 5 5 5 5 5 5 5 5 7 8 8 6 6 6 6 5 4 4 4 3 2 2 3 4 4
3 3 3 3 3 2 2 1 2 2 2 2 2 2 3 3 3 4 4 4 4 4 4 4 4 3 2 2 1 1 1 1 1 1 0 1 2 3 3 3 3 3 3 3 3 3 3 2 2 2 2 2 2 2 1 1 1 2 2 2 3 3 2 2 2 2 2 2 2 2 2 2 3 3 3 4 5 6 6 6 5 5 5 5 5 5 11 14 14 11 9 7 6 5 4 3 3 3 3 4 4 4 4
3 3 3 3 2 2 1 1 2 2 2 2 2 2 3 3 3 3 3 3 3 3 4 4 4 3 3 2 1 1 1 1 1 1 0 1 3 3 3 3 3 3 3 3 3 3 3 2 2 2 2 2 2 1 1 1 1 1 2 2 2 3 3 2 2 2 2 2 2 3 3 3 3 3 3 3 4 4 5 6 5 5 5 4 5 8 13 15 16 16 14 11 8 5 4 4 4 4 5 5 5 5 5
3 3 3 2 1 1 1 1 2 2 2 2 2 2 2 3 3 3 4 4 4 4 4 4 4 3 3 2 1 1 1 1 1 0 1 2 3 3 3 3 3 3 3 3 4 4 3 3 2 2 2 2 1 1 1 1 1 1 1 2 2 2 2 2 2 2 2 2 3 3 3 4 3 3 3 2 3 3 4 5 5 5 5 4 6 11 14 15 16 16 16 14 11 6 5 4 4 5 5 6 6 6 5
3 3 2 1 1 1 1 2 2 2 2 2 2 2 2 3 4 4 4 4 4 4 4 4 3 3 2 2 1 1 1 1 1 1 2 3 4 3 3 3 3 3 4 4 4 3 3 2 2 2 2 1 1 1 1 1 1 1 2 2 2 2 2 2 2 2 2 2 2 3 3 3 3 2 2 2 2 2 3 4 5 5 5 6 8 13 15 15 15 15 15 14 13 8 5 4 4 4 5 5 5 5 5
3 3 2 2 2 2 2 2 2 2 2 2 2 2 2 3 3 3 3 3 4 4 4 3 3 2 2 2 1 1 1 1 0 1 2 3 3 3 3 3 4 5 4 4 4 3 3 2 2 2 2 2 1 1 1 1 1 1 2 2 2 2 2 2 2 2 2 2 2 2 2 2 2 2 2 2 2 2 3 4 4 5 5 7 10 14 15 15 14 14 14 14 12 10 5 3 3 4 4 4 4 4 4
4 4 3 3 3 3 2 2 2 2 2 2 2 2 3 3 3 3 3 3 4 4 4 3 2 2 2 1 1 1 1 0 1 2 3 3 3 3 4 4 5 5 5 4 3 3 3 2 2 2 2 1 1 1 1 1 2 2 2 2 2 2 1 1 1 1 1 2 2 1 1 1 2 2 2 1 2 3 3 4 4 5 5 7 10 14 15 14 14 13 13 12 11 10 6 4 3 4 4 4 4 5 5
4 4 3 3 2 2 2 1 2 2 2 2 2 3 3 2 2 2 3 3 3 3 3 2 2 1 1 1 1 0 0 1 1 2 3 4 4 4 5 5 6 6 5 3 3 2 2 2 2 2 1 1 1 1 1 2 2 3 2 2 1 1 1 0 0 1 2 2 1 1 1 1 1 2 2 1 2 2 3 3 4 5 6 7 9 14 14 14 14 13 12 11 11 10 7 5 4 4 4 4 5 5 6
3 2 1 1 1 1 1 2 2 3 3 3 3 3 3 2 2 3 3 4 3 2 1 1 1 1 1 0 0 0 1 1 2 2 4 4 5 5 6 6 6 5 4 3 2 2 2 2 2 2 2 1 2 2 2 2 2 3 2 2 1 1 1 0 1 1 2 1 1 1 1 1 1 1 1 1 1 1 2 2 3 5 5 7 9 14 14 14 14 13 12 11 11 10 7 5 4 4 5 5 5 6 7
1 1 1 1 1 1 2 2 3 3 3 3 3 3 2 3 3 4 3 3 2 1 1 1 1 1 0 0 0 1 1 2 3 3 4 4 5 6 6 6 6 5 3 2 2 2 2 2 2 2 1 1 2 2 2 2 2 3 2 2 1 1 0 1 1 2 1 1 1 0 0 1 1 1 1 1 1 1 1 2 3 4 5 7 10 13 14 14 14 14 13 12 11 10 7 5 4 4 4 5 5 6 6
2 1 1 1 1 1 1 2 2 2 2 2 2 2 2 2 2 2 2 1 2 2 2 1 1 0 0 0 1 1 2 3 3 4 4 5 5 6 6 6 5 4 3 2 2 2 3 2 2 1 1 1 2 3 3 3 2 2 2 2 1 1 1 1 1 2 2 2 2 1 1 0 0 1 1 1 1 1 2 2 3 4 4 7 11 13 13 14 14 14 14 13 11 10 6 5 5 5 5 5 6 6 7
Wind_Direction
41 42 40 39 38 36 35 38 42 45 44 42 40 38 42 44 45 45 53 66 82 94 102 106 107 109 111 104 89 71 63 55 52 57 74 97 114 107 59 32 21 18 16 13 10 12 12 359 264 252 9 27 22 16 1 352 350 356 352 341 330 317 330 355 1 358 360 2 4 0 355 354 353 346 326 311 301 296 293 289 282 277 272 271 268 262 258 262 268 279 288 293 291 286 284 285 287 290 285 271 252 246 250
46 46 44 43 42 41 41 42 46 50 50 47 43 42 46 45 41 32 27 25 24 16 21 33 47 66 69 61 53 51 58 60 60 59 62 63 57 43 36 32 33 36 38 30 24 31 54 76 124 33 27 2 351 345 338 341 347 351 340 330 318 304 322 343 347 341 340 337 331 318 317 323 324 315 291 278 273 276 277 274 266 256 248 247 247 248 252 260 269 277 278 280 282 289 283 277 275 280 287 285 273 249 243
46 46 45 45 45 45 46 46 47 50 51 48 43 43 47 47 45 39 35 29 24 20 25 29 37 58 62 55 49 52 59 63 66 67 69 65 58 46 50 52 56 65 59 31 11 12 30 26 13 19 10 359 349 337 330 338 349 346 329 318 309 301 312 322 318 306 303 293 281 259 259 271 280 273 262 259 258 264 264 258 247 235 232 235 243 251 258 266 272 278 280 283 292 308 302 287 275 274 282 286 286 284 352
45 45 45 45 46 47 48 48 48 49 52 50 46 44 47 47 46 44 41 38 35 33 33 33 38 54 59 58 55 58 63 66 68 70 73 76 75 69 93 100 102 103 41 349 324 132 102 75 24 354 345 336 328 321 322 331 334 324 308 300 295 295 297 291 271 255 251 242 227 207 206 228 245 248 252 255 258 262 259 251 239 229 234 242 250 259 264 268 273 281 291 303 320 331 321 314 307 288 289 293 299 316 12
46 46 46 46 47 49 50 50 49 49 52 52 49 46 46 46 45 45 43 42 41 40 37 36 36 40 44 47 50 52 53 50 47 53 63 61 49 32 109 120 124 183 274 233 181 157 137 126 24 318 311 308 306 304 300 299 297 292 285 284 288 294 300 303 301 287 253 224 210 197 199 218 234 245 254 260 265 271 275 275 274 270 267 267 267 269 269 270 276 292 314 330 339 339 326 321 322 325 315 310 314 332 348
48 48 48 49 50 51 51 51 50 49 52 52 50 46 45 44 43 43 41 41 41 42 40 41 42 44 44 46 46 39 32 28 30 36 35 27 19 19 101 129 149 186 158 136 128 137 146 274 306 307 303 300 296 294 294 294 293 291 286 284 286 292 299 309 323 340 351 353 348 341 309 258 247 252 258 265 274 290 297 299 299 300 295 292 290 291 294 303 320 342 353 353 349 344 340 336 336 339 339 334 330 332 338
52 52 52 52 52 52 52 51 51 53 54 54 52 48 45 43 43 42 41 40 40 40 40 42 44 46 45 45 44 41 38 38 38 35 26 24 28 40 75 109 132 151 145 136 126 112 307 309 308 304 304 304 304 304 302 300 299 303 300 293 287 287 291 299 317 344 353 354 350 347 345 294 259 256 266 278 292 304 301 301 302 302 286 280 287 307 343 360 6 6 5 2 358 356 6 11 7 355 350 344 338 335 344
55 56 56 54 52 52 53 54 54 56 56 55 53 50 47 46 46 45 45 44 43 42 42 44 46 48 48 48 49 52 53 53 50 41 32 36 44 50 39 19 231 187 160 140 79 344 329 324 321 320 322 323 324 322 313 306 306 316 316 313 313 317 320 329 345 0 8 20 36 50 45 35 21 356 332 318 313 308 301 301 295 239 219 218 18 20 20 19 16 11 9 8 9 10 16 22 22 10 357 349 342 335 341
58 60 59 57 54 54 55 56 57 58 58 57 55 53 52 52 52 52 52 51 50 47 47 47 49 51 52 52 53 56 59 63 66 68 57 51 51 45 4 329 312 309 353 16 22 27 30 25 9 359 350 346 346 348 344 341 344 350 353 360 5 9 20 32 39 40 41 44 47 49 50 50 50 51 53 58 63 64 67 62 55 52 54 49 41 34 28 21 16 13 14 17 20 20 20 24 28 28 3 348 340 333 332
65 65 66 65 61 57 56 57 58 59 60 59 57 54 54 56 59 59 59 58 56 53 51 49 48 48 48 48 47 47 51 59 72 89 80 66 51 33 8 357 357 3 13 24 31 33 29 24 17 10 359 353 351 355 2 5 7 13 23 29 33 39 48 54 55 52 51 52 54 56 60 62 61 58 57 57 57 56 54 46 39 34 35 36 36 32 25 19 16 14 15 17 18 17 18 21 24 34 355 326 328 327 318
71 68 70 69 66 60 57 57 58 61 63 62 60 57 58 60 62 63 63 63 61 58 56 54 52 51 48 46 45 43 45 49 57 75 78 71 58 44 34 25 21 22 30 40 49 51 39 25 12 3 358 355 355 357 3 9 19 36 49 52 52 52 55 56 56 53 52 54 56 58 59 59 56 51 47 44 43 43 41 37 34 33 32 32 32 30 24 20 16 12 10 8 4 357 359 358 347 291 231 261 309 317 306
70 67 68 69 69 64 60 58 59 62 65 65 64 62 64 64 65 67 67 67 66 64 62 61 61 60 57 55 52 52 52 51 54 61 69 69 65 60 62 61 59 58 69 74 74 73 55 24 360 356 359 1 4 5 8 22 40 54 62 64 59 53 50 51 53 53 49 49 51 51 50 50 49 46 42 39 38 38 36 35 33 32 29 29 29 27 23 18 12 5 359 352 342 331 321 305 284 270 256 280 313 308 292
69 68 67 69 71 70 65 62 61 62 66 69 70 69 70 70 70 70 71 71 71 70 69 68 67 67 66 64 61 61 62 63 63 65 73 77 79 78 79 77 74 70 71 71 73 77 68 32 2 0 1 0 3 14 25 41 53 58 61 61 58 53 49 48 49 50 46 44 45 46 45 44 44 43 40 37 36 35 34 33 33 31 30 29 28 25 18 10 1 352 344 335 324 306 286 268 257 256 264 290 309 305 293
72 70 69 69 71 74 71 67 63 63 66 70 73 72 72 73 72 71 73 74 75 75 74 73 72 71 70 69 68 67 70 72 72 70 76 82 88 86 82 79 75 71 67 65 64 72 78 57 20 2 358 358 5 21 38 51 57 57 55 55 55 52 49 47 46 46 44 42 41 43 42 41 41 40 37 35 34 34 34 32 31 30 30 29 27 23 11 359 349 344 336 328 320 300 281 269 262 258 260 275 289 295 296
77 74 72 71 72 75 75 71 66 64 65 66 68 70 70 71 72 73 74 76 77 77 76 76 75 73 72 71 71 70 71 74 76 73 72 75 81 82 79 78 77 75 69 62 54 57 65 58 22 353 358 10 21 30 43 52 56 53 52 52 51 49 48 47 46 45 43 41 39 40 40 40 39 38 36 34 33 33 32 29 27 27 27 25 20 15 2 350 342 337 332 327 323 317 311 306 302 296 286 286 292 297 301
82 79 77 75 75 77 78 77 73 65 63 63 65 67 69 71 71 73 73 74 74 75 75 74 73 72 70 70 71 73 73 74 76 75 70 71 73 78 77 77 77 78 74 63 45 33 36 28 13 9 20 27 32 35 45 52 54 50 50 50 49 47 45 45 44 43 41 39 36 35 36 37 37 35 33 31 30 30 28 25 22 21 21 17 10 3 355 348 342 337 330 325 322 319 317 315 315 317 313 312 315 320 321
85 80 79 79 80 82 83 80 75 66 63 62 63 66 68 68 67 68 68 70 71 72 72 72 71 69 67 66 68 72 72 74 75 75 71 69 70 76 77 77 76 79 80 72 52 30 29 27 25 33 38 37 36 36 44 51 53 49 49 49 48 46 43 42 41 40 39 36 34 30 30 31 33 32 29 27 25 24 24 21 19 18 16 11 3 358 354 349 344 338 332 326 320 317 317 320 326 333 334 338 343 345 337
86 81 80 81 83 85 83 79 74 68 64 61 62 65 66 65 64 64 65 67 69 71 72 71 69 67 63 61 62 65 68 71 73 73 70 67 66 72 77 80 80 81 82 78 69 50 45 45 48 50 47 42 38 36 42 49 51 48 46 47 47 46 43 41 39 36 35 34 32 27 23 23 26 29 26 23 20 18 19 18 17 16 13 6 0 359 355 349 343 337 330 324 321 322 329 338 347 353 354 356 357 350 342
87 85 82 80 80 81 80 78 75 71 66 63 62 64 64 64 62 62 64 65 67 70 73 72 70 64 58 55 56 59 62 66 69 70 67 63 61 64 73 80 83 83 82 81 78 71 66 64 63 62 54 46 40 40 43 46 48 46 44 44 45 45 42 40 36 32 32 31 29 25 20 18 19 25 24 20 16 15 17 17 16 15 11 5 0 357 351 345 338 332 326 323 326 336 347 355 0 3 5 3 357 345 340
89 90 85 80 77 77 78 77 76 72 69 66 63 63 63 62 61 61 63 63 65 68 74 74 71 62 52 48 50 53 56 61 65 65 63 61 59 59 63 70 77 80 79 79 79 80 75 70 68 67 60 52 45 45 46 46 45 45 41 40 40 42 39 36 33 31 29 27 24 21 16 14 15 22 20 17 15 15 17 17 15 12 8 2 357 350 345 339 333 327 324 327 341 359 6 7 6 6 8 4 355 340 341
95 93 88 84 80 78 78 77 76 74 71 67 64 63 63 61 60 61 63 64 63 63 71 74 73 63 49 43 43 47 51 57 61 62 59 57 56 54 54 59 68 76 76 76 77 77 75 72 71 70 64 56 49 50 49 47 45 43 39 37 38 38 33 31 31 30 26 25 22 18 11 11 14 20 18 16 15 16 17 16 14 10 4 357 351 348 344 340 337 333 331 343 5 17 18 13 9 7 7 1 352 338 349
99 94 91 88 84 81 82 81 80 76 72 68 65 64 62 60 59 60 62 63 63 60 65 70 71 64 49 39 37 42 46 54 59 61 58 55 53 50 48 52 62 73 76 76 75 75 74 73 72 72 66 59 53 54 53 50 48 46 41 39 39 35 30 30 31 28 24 23 21 14 7 8 14 20 19 18 17 18 17 15 12 7 1 357 356 354 350 348 348 347 350 6 21 25 19 14 10 10 6 357 348 341 4
97 94 92 89 87 85 86 85 82 79 76 71 67 63 61 58 56 56 58 60 60 58 60 66 69 64 50 38 35 41 45 52 57 61 58 55 51 47 44 47 56 67 72 75 76 75 74 71 70 70 68 63 58 58 56 54 53 52 47 44 42 37 36 35 33 28 23 22 19 9 4 8 17 22 20 19 19 20 17 14 11 7 5 4 2 359 357 356 357 358 3 17 28 28 20 13 10 10 5 355 351 353 13
95 94 92 90 87 85 85 84 83 81 78 74 69 64 60 57 55 54 55 56 57 55 57 62 65 63 49 39 36 42 46 50 56 62 60 56 51 46 43 44 50 59 64 69 74 77 75 72 69 67 68 67 65 62 58 56 55 55 53 48 44 41 43 42 37 30 25 22 16 4 5 12 19 19 20 22 24 22 19 16 14 13 11 10 7 4 2 2 3 4 10 22 31 29 21 14 10 10 2 359 1 6 16
94 93 90 88 86 84 82 81 80 78 75 72 68 63 59 56 53 51 52 53 54 53 55 60 63 62 50 40 37 44 47 51 56 62 62 58 53 47 46 46 49 54 56 61 67 74 76 75 72 67 65 66 67 64 60 57 56 58 56 50 45 43 45 43 37 32 27 20 11 6 12 16 18 18 22 25 26 25 22 19 17 16 15 13 10 7 4 5 7 9 16 27 33 29 21 15 12 9 2 6 12 14 13
91 88 85 82 81 81 77 75 73 73 71 68 65 62 58 54 50 44 48 51 53 53 55 60 64 63 54 45 41 46 50 53 57 62 64 62 57 51 50 51 53 56 55 57 63 70 76 78 77 71 63 61 63 65 62 59 59 62 61 55 48 43 44 40 35 31 24 17 12 11 16 18 20 21 23 26 28 27 25 21 19 18 16 13 11 7 5 6 10 12 21 31 34 29 20 15 11 7 2 9 17 17 11
85 81 77 73 71 72 72 70 69 68 68 66 63 60 57 54 48 42 49 53 54 54 59 62 65 65 60 53 48 49 54 57 60 63 67 67 64 58 55 55 58 61 58 60 65 70 75 78 78 72 63 57 55 57 58 59 61 63 63 59 51 44 41 37 31 28 20 16 13 13 16 20 22 23 24 27 28 28 25 23 20 19 16 14 12 9 9 10 13 14 24 32 34 29 20 14 10 5 1 6 12 14 8
89 82 72 65 62 64 68 70 70 69 69 67 65 62 60 56 49 44 52 57 59 59 64 66 66 65 62 58 54 52 56 60 63 65 69 71 71 67 61 59 60 64 64 65 67 70 72 75 76 73 63 57 53 51 53 55 59 62 63 61 55 46 39 33 30 25 17 14 13 13 16 20 24 25 27 28 30 28 25 22 20 18 16 14 13 13 14 14 14 14 25 32 34 28 21 14 8 360 357 359 3 5 4
94 87 76 69 64 63 64 68 71 73 73 71 69 67 64 59 53 49 55 62 66 67 70 70 69 66 63 59 55 53 57 61 65 67 71 74 75 73 69 65 63 65 68 69 71 72 72 73 75 76 67 60 56 55 54 56 57 59 61 59 55 46 38 33 28 21 14 12 13 15 17 19 22 25 28 31 31 28 23 20 19 18 17 15 14 14 15 16 15 17 26 31 31 26 21 14 5 355 352 352 353 354 357
86 83 79 76 72 69 67 67 68 72 74 74 74 73 70 65 59 54 58 63 67 68 72 73 72 66 63 60 56 51 55 61 65 68 74 77 79 79 77 74 70 68 68 70 73 76 75 74 74 75 70 65 61 60 61 59 58 57 57 54 50 45 37 30 23 18 15 13 12 17 20 21 22 22 27 30 31 27 21 17 16 19 19 16 13 13 13 13 15 20 28 30 23 16 17 8 355 343 345 344 343 343 346
75 76 76 77 78 78 77 75 72 70 72 73 74 74 74 71 66 63 64 64 63 62 66 70 71 69 65 64 62 56 58 63 69 71 74 79 81 82 81 78 76 74 72 70 70 72 73 73 71 70 70 70 68 65 65 62 58 55 53 52 50 46 36 26 20 20 18 15 14 18 22 24 23 20 22 27 29 25 16 13 14 17 15 13 11 9 7 7 9 18 27 25 12 360 356 344 338 340 341 340 337 334 334
80 78 79 81 85 87 87 85 81 75 71 68 67 69 73 73 71 70 67 63 60 58 59 62 67 70 69 69 69 66 64 66 70 71 69 71 75 80 80 78 77 77 75 72 69 67 69 69 69 67 70 72 71 69 66 64 60 57 55 53 52 47 38 28 23 23 22 20 20 21 24 25 23 18 16 20 23 18 11 9 9 8 6 4 3 1 1 359 358 2 12 4 347 334 327 321 321 331 337 337 333 327 325
91 91 91 92 93 94 94 91 88 81 75 71 69 66 69 71 70 68 64 61 58 57 57 59 62 66 67 68 67 63 60 60 63 68 65 64 67 75 77 76 75 73 71 69 67 65 67 68 69 68 72 74 73 71 68 65 63 60 59 56 53 48 40 32 25 25 23 22 22 25 25 23 20 15 12 12 11 8 3 0 359 356 355 351 347 349 354 352 347 343 346 334 317 308 307 306 308 316 329 332 326 318 315
100 102 102 100 98 96 94 92 90 86 82 78 75 71 70 69 68 64 62 59 57 57 58 58 59 58 56 55 54 53 50 50 54 61 63 63 64 70 75 76 73 70 68 66 64 63 66 68 71 72 77 80 80 76 71 69 66 64 64 63 60 55 46 34 28 28 19 18 21 25 23 19 15 12 7 1 355 356 356 352 349 347 347 341 335 332 339 340 336 331 328 313 300 295 295 295 298 308 323 325 319 310 311
105 107 107 103 98 92 89 88 88 90 86 82 78 72 66 63 63 64 63 59 55 53 54 54 55 57 53 50 49 50 44 43 46 52 54 57 61 67 73 74 74 72 70 68 66 66 67 71 76 78 79 82 83 79 74 71 67 67 68 69 72 80 66 42 33 24 13 13 16 17 13 7 360 355 353 348 347 349 350 347 343 341 341 337 330 324 324 324 325 326 319 310 301 294 292 291 296 305 316 317 312 306 311
110 108 106 102 98 89 81 77 77 84 82 77 71 66 60 57 56 61 61 56 50 48 48 47 47 52 53 51 49 48 41 40 43 48 48 52 60 69 71 73 74 76 73 72 72 75 76 80 84 85 81 80 80 80 76 72 67 68 68 70 83 115 70 51 31 4 10 14 12 3 350 338 328 326 332 339 342 343 342 340 338 336 337 335 330 323 318 317 318 321 315 310 306 301 296 296 299 305 311 311 308 305 310
112 109 104 100 95 88 82 76 74 75 74 71 67 63 58 53 49 51 52 49 45 42 39 36 35 43 46 47 46 46 41 40 43 52 52 55 62 71 73 73 75 77 77 75 75 79 85 90 92 91 86 82 79 80 76 70 67 68 68 41 333 46 63 44 356 327 1 11 359 336 320 312 311 317 325 334 339 340 338 337 336 336 335 334 330 324 318 315 314 310 308 307 306 303 301 300 302 304 308 309 308 307 312
111 109 104 100 95 92 89 85 80 74 72 70 68 65 60 53 46 45 45 43 37 30 23 19 23 36 39 38 38 45 47 45 46 57 65 70 72 75 76 76 76 78 82 83 83 84 90 94 94 92 87 82 77 75 70 60 40 2 314 305 327 33 28 343 323 318 331 340 333 313 311 313 318 323 329 335 340 340 339 338 338 336 335 332 329 325 320 315 308 300 297 298 299 300 300 299 300 302 305 307 308 310 314
107 106 104 102 102 99 93 86 80 74 71 69 67 63 58 50 43 38 35 29 21 17 13 9 13 30 32 27 22 33 49 55 60 68 80 84 84 82 81 80 81 78 85 93 100 103 99 96 93 89 85 78 73 62 28 335 314 310 309 314 321 330 330 323 316 315 318 321 321 317 318 321 324 328 335 341 343 342 341 340 339 335 333 331 329 326 322 317 309 299 292 289 290 293 295 296 298 302 305 307 308 312 314
104 105 106 106 103 97 88 83 79 75 70 66 62 58 53 46 36 24 16 10 9 10 6 5 8 20 19 11 5 14 35 61 81 86 90 92 92 89 86 86 86 84 88 95 105 106 97 90 87 85 83 77 70 36 298 289 293 300 304 311 321 329 316 311 310 317 322 326 330 337 333 332 331 334 342 346 347 345 343 340 338 334 332 330 329 327 324 320 312 302 293 288 285 286 290 293 298 305 309 312 314 316 316
108 107 106 102 97 91 88 85 82 79 73 66 59 55 47 37 24 11 6 5 5 4 0 2 7 9 359 351 349 0 19 68 101 104 103 103 102 98 93 88 89 93 95 95 93 89 88 86 84 84 80 81 73 270 276 281 287 290 296 307 324 328 317 316 320 326 329 333 340 348 347 344 344 345 349 350 350 346 342 339 335 333 331 329 328 327 325 322 317 310 301 293 287 284 286 290 297 305 313 318 319 319 319
113 108 104 100 97 94 92 89 85 80 75 68 58 49 39 27 15 5 2 2 2 359 357 357 356 347 332 329 334 347 3 83 115 116 113 112 112 112 107 100 94 99 100 95 80 80 88 92 96 111 186 239 245 255 268 276 281 286 296 308 320 326 329 331 331 331 334 341 347 351 352 354 353 352 353 351 348 343 338 334 331 329 327 325 325 325 324 322 319 316 311 303 295 288 288 291 296 304 311 313 313 314 315
116 112 109 106 102 97 92 85 79 72 66 59 54 46 34 19 3 350 346 350 354 356 346 333 320 310 315 322 331 341 354 90 121 121 121 121 121 121 122 118 112 108 111 107 83 82 104 125 149 191 220 232 238 247 259 268 276 285 299 307 317 333 344 340 336 333 338 346 352 352 351 354 357 356 351 346 341 336 332 329 327 325 324 324 324 325 323 321 320 318 317 313 308 301 297 296 298 301 300 298 298 300 302
120 117 113 106 99 91 85 79 68 55 40 34 36 37 23 4 347 337 334 337 345 348 327 305 288 281 295 311 323 329 337 102 130 127 128 129 131 132 132 132 133 137 151 169 182 172 179 191 203 213 220 226 232 239 253 267 277 281 294 311 331 348 351 345 339 337 340 345 350 350 349 353 358 358 347 341 336 333 332 332 331 328 327 327 328 328 326 324 323 322 322 321 320 316 312 309 306 302 295 292 293 296 296
122 116 108 99 92 87 82 69 24 317 307 304 306 300 289 303 317 328 331 335 341 342 326 309 293 280 277 281 291 301 304 251 144 130 129 134 139 140 137 141 150 172 186 200 210 212 212 214 218 221 223 227 233 241 253 264 270 271 284 338 355 348 339 338 343 347 346 346 346 347 351 354 355 352 346 340 337 336 341 341 339 334 333 333 334 336 335 332 330 327 327 327 326 323 318 313 309 306 304 304 305 305 302
120 116 112 107 102 92 70 338 296 291 291 292 290 286 279 273 273 288 311 326 335 340 329 316 304 291 286 281 283 294 301 285 149 129 128 133 140 141 140 149 166 194 207 216 220 224 224 225 225 227 229 234 241 250 252 254 256 256 305 15 5 339 329 338 353 355 350 346 344 346 352 351 347 343 346 345 343 345 349 347 343 339 340 343 345 345 342 337 333 329 328 327 326 324 317 310 305 304 306 310 312 312 312
124 124 124 123 120 113 213 266 277 286 291 295 298 299 297 290 283 276 281 289 300 300 302 300 299 296 297 295 295 308 318 311 149 133 132 137 143 147 153 166 184 208 221 227 230 231 232 232 234 237 243 250 254 255 251 250 251 261 30 23 4 340 348 358 359 350 342 338 337 339 344 343 341 342 350 353 353 355 354 351 348 348 352 353 351 347 340 334 330 328 325 323 321 319 312 304 296 291 297 306 313 318 322
131 131 133 137 147 171 212 245 265 277 290 300 307 309 307 306 306 305 305 303 296 282 280 286 292 298 301 300 300 317 359 13 100 130 136 144 153 162 175 189 203 216 228 236 240 240 241 244 249 258 268 268 264 259 258 262 283 1 16 14 9 8 9 6 355 336 324 315 312 315 328 340 349 356 359 0 1 4 1 357 355 357 360 356 349 340 333 331 331 329 325 322 318 314 303 292 281 275 283 299 315 323 329
139 141 148 158 175 195 217 244 270 286 296 303 307 308 312 317 323 329 334 335 330 320 311 306 304 309 310 308 311 6 52 60 64 90 128 148 171 188 199 208 217 226 236 244 249 251 253 258 267 280 276 268 261 258 264 285 338 8 9 9 8 7 6 360 350 330 318 308 309 322 345 5 14 15 11 7 5 6 5 2 0 1 359 351 340 329 337 343 344 338 331 327 323 317 298 282 273 271 285 306 321 329 332
153 160 170 183 197 212 229 258 281 294 295 298 302 308 317 323 329 334 336 336 330 322 315 312 313 321 320 321 340 40 69 76 74 69 106 191 207 214 220 224 230 236 244 252 258 261 262 265 271 272 264 257 254 254 270 314 359 10 10 7 3 358 354 351 346 336 331 334 346 3 13 22 28 29 21 14 8 5 4 4 3 2 355 344 334 328 344 348 349 346 343 340 337 333 315 300 296 305 319 328 335 338 339
171 183 194 204 214 229 250 272 286 287 286 290 298 308 314 317 318 319 318 314 307 302 302 305 312 321 320 326 349 52 86 93 93 95 198 227 230 230 231 234 239 245 252 257 258 255 256 257 257 252 254 254 257 270 306 346 359 4 7 7 1 350 341 339 340 344 353 4 13 20 22 23 23 23 21 18 12 7 4 3 3 360 351 340 334 339 348 349 349 348 349 352 356 1 353 343 336 335 342 345 347 347 347
185 198 204 211 223 249 267 275 276 277 279 283 289 296 300 301 302 303 303 300 296 293 297 303 311 319 318 323 346 60 95 105 114 163 226 236 240 241 241 242 246 253 254 251 249 248 250 250 251 249 255 263 274 304 333 339 341 346 5 6 358 340 332 330 338 356 12 18 23 29 29 24 18 9 9 9 9 9 8 4 0 354 347 338 337 345 349 350 350 352 359 5 14 29 21 8 355 349 351 352 353 351 348
190 198 200 204 218 239 247 252 255 262 271 278 283 287 291 294 295 295 295 297 299 300 303 310 317 320 316 323 352 60 86 104 142 226 242 247 250 253 254 253 252 253 250 249 250 253 253 253 256 263 268 275 282 304 311 314 322 349 6 2 350 336 334 339 350 6 16 25 33 37 31 21 8 357 354 352 353 2 9 5 359 350 343 338 340 347 350 352 354 1 10 18 26 36 31 17 4 358 354 353 351 347 342
187 190 192 196 205 214 222 230 238 250 268 281 288 286 282 281 283 286 289 294 299 302 307 315 321 317 318 336 14 59 77 102 198 237 251 256 259 262 262 259 254 249 248 251 255 258 256 259 266 274 268 270 276 288 293 308 336 359 2 356 347 341 345 351 356 359 8 27 39 39 21 5 353 347 339 339 348 4 7 2 355 347 338 336 341 349 352 355 360 10 18 24 28 31 29 19 7 1 354 347 342 337 334
186 191 195 200 204 208 213 223 239 259 267 274 277 277 266 259 259 269 281 288 292 296 307 314 317 320 337 0 29 54 64 50 259 256 258 260 261 260 258 254 252 248 248 251 255 255 260 266 271 269 272 280 292 293 311 335 349 352 350 347 342 335 329 330 341 1 29 41 45 34 10 355 346 333 326 338 2 15 9 359 350 343 336 335 341 350 353 357 3 14 19 22 24 26 24 16 3 356 348 341 336 332 330
190 201 208 212 215 215 219 229 243 254 251 248 246 253 250 240 232 238 260 269 275 283 294 304 316 344 6 21 32 18 329 289 266 262 262 262 259 255 252 251 250 249 250 252 256 262 270 274 278 287 305 316 316 315 336 346 347 338 327 315 296 273 257 248 52 54 54 52 45 6 359 345 332 319 326 345 8 18 5 353 343 338 333 333 341 351 355 358 3 10 13 16 18 21 19 11 359 352 345 339 334 331 330
197 211 224 237 253 256 246 243 243 245 245 243 242 245 247 240 229 227 245 256 264 270 289 323 354 25 35 39 14 320 291 279 268 257 261 263 261 255 250 249 250 251 253 254 258 268 273 278 289 319 333 331 325 327 338 339 332 315 294 271 250 237 220 148 88 71 71 68 40 340 342 332 321 321 333 345 355 3 351 344 340 341 335 335 342 353 356 358 0 2 4 9 15 19 17 9 356 349 343 338 333 329 327
227 238 247 262 270 267 263 258 254 250 250 251 253 253 256 249 240 235 248 262 282 325 6 19 25 43 60 47 317 285 279 278 271 259 259 263 264 261 256 254 253 254 253 252 254 259 266 278 299 333 336 331 326 328 329 323 312 298 286 274 260 246 200 146 134 128 138 149 165 186 281 318 319 321 323 324 327 332 340 346 348 348 339 340 347 355 357 358 358 357 358 5 14 19 15 6 355 349 343 337 332 327 324
236 231 226 231 239 245 254 259 256 247 246 252 259 262 258 262 267 267 278 311 343 359 11 24 37 39 6 277 270 271 275 276 272 266 263 265 267 267 265 263 259 255 250 246 245 246 255 268 289 321 328 329 329 327 319 310 301 293 292 288 276 241 191 165 160 161 171 180 185 186 182 205 276 296 299 306 316 330 352 2 2 355 342 345 351 357 358 359 358 356 356 4 14 21 15 4 354 348 341 334 328 322 318